Location: Spruce Knob
(38.6995°N, 79.5330°W)
Time: 19:59:54
(UTC-04:00)

BUGSAT 1 - Pass Details

Date: 29 March 2023
Orbit: 549 x 588 km, 98.1° (Epoch: 04 June)

Event Time Altitude Azimuth Distance (km) Brightness Sun altitude
Rises 18:34:39 0° 141° (SE) 2,805 ? 11.6°
Reaches altitude 10° 18:37:00 10° 131° (SE) 1,906 ? 11.2°
Maximum altitude 18:40:35 29° 70° (ENE) 1,074 ? 10.5°
Drops below altitude 10° 18:44:10 10° 10° (N) 1,903 ? 9.8°
Sets 20:21:22 0° 331° (NNW) 2,802 ? -9.1°
